Wind_Speed
12 11 11 11 12 12 13 12 13 12 12 11 11 11 11 11 11 11 11 11 11 11 12 12 12 12 12 13 14 14 15 15 15 15 15 15 16 16 17 17 16 17 17 17
14 14 14 13 12 14 14 15 15 15 14 13 14 13 13 12 12 12 13 13 12 13 13 13 13 13 13 14 14 14 15 15 16 16 16 16 16 17 17 17 17 17 18 18
16 15 16 15 14 14 15 15 15 15 14 15 16 15 14 14 13 13 14 14 13 13 13 13 14 14 14 14 14 14 14 14 15 15 16 16 16 16 16 17 17 17 17 17
18 17 18 15 15 16 16 16 16 16 15 15 16 16 16 15 15 15 15 15 14 13 13 13 14 13 14 14 14 14 14 14 15 15 16 16 16 17 17 17 17 18 18 19
20 19 19 17 16 17 17 16 16 16 16 16 16 16 16 16 17 16 15 15 15 14 14 14 14 14 14 14 14 14 14 15 15 16 17 17 18 18 18 18 18 19 19 19
21 22 21 17 17 17 18 18 17 17 16 17 17 17 16 16 16 16 16 15 15 14 14 14 14 14 14 15 15 15 15 15 16 17 18 18 19 19 19 19 19 20 20 20
22 22 21 19 18 18 19 19 18 18 18 18 17 17 18 18 17 17 17 16 16 15 15 15 15 15 15 16 17 16 16 17 17 17 18 19 20 20 20 20 21 21 22 22
24 24 22 20 20 20 20 20 20 20 20 19 19 19 19 19 19 18 17 18 17 17 17 16 16 16 16 16 17 18 18 19 19 19 20 21 21 21 22 22 23 23 23 24
25 24 22 21 22 22 22 22 22 21 21 21 20 20 20 20 20 20 19 19 18 18 18 17 18 18 17 18 19 20 20 20 20 21 21 22 22 22 22 23 24 24 24 25
26 24 23 23 23 23 23 23 22 22 22 22 22 22 22 22 22 22 21 21 20 20 19 18 19 19 19 19 21 22 21 22 22 22 23 23 23 23 23 24 25 25 25 26
27 26 25 24 24 24 23 23 23 23 23 23 23 23 22 22 23 23 22 22 22 21 21 20 20 21 21 21 22 23 23 24 24 24 24 24 25 25 25 25 26 26 26 27
27 26 27 26 26 25 25 25 24 24 24 24 23 23 23 23 24 23 23 23 23 23 22 22 23 23 23 23 24 24 24 25 25 26 26 26 26 27 27 26 27 27 27 28
27 28 28 27 27 27 26 26 25 24 24 24 24 24 24 24 24 24 24 24 24 24 24 24 24 25 25 25 25 25 25 25 25 26 26 26 27 27 27 28 28 28 28 29
28 29 28 27 27 28 27 27 26 26 25 25 25 25 25 25 25 26 26 26 26 26 25 25 25 25 25 26 25 25 26 26 26 26 27 27 27 27 27 28 28 28 28 29
29 29 28 28 27 27 28 27 27 27 27 26 26 26 27 27 26 26 26 27 27 27 26 26 26 26 26 26 26 26 26 26 26 27 27 28 28 28 28 29 29 29 29 30
28 28 29 29 28 28 28 28 28 28 28 28 27 27 28 28 27 27 27 27 27 27 27 26 26 26 26 26 27 26 26 27 27 28 28 28 28 29 30 29 30 30 30 30
30 30 30 30 29 29 29 29 28 28 28 28 28 28 28 28 27 27 27 27 27 27 26 26 26 26 26 26 26 27 27 28 28 29 29 29 29 29 29 30 30 31 31 32
31 31 32 31 30 30 30 30 29 29 29 28 28 28 29 28 28 28 27 27 26 26 26 26 26 26 26 26 27 27 28 29 29 29 29 30 30 30 30 31 31 32 33 33
31 31 32 32 31 31 31 31 30 29 29 28 28 28 29 29 29 29 28 27 26 26 26 26 26 26 27 27 27 28 28 28 28 29 29 30 30 30 30 31 31 32 32 32
31 32 31 31 31 31 31 30 30 29 28 28 28 29 29 29 28 28 28 28 27 27 27 27 27 27 27 27 28 28 29 29 28 29 29 29 29 29 30 31 31 32 32 32
31 31 30 31 31 30 30 30 30 29 28 28 28 28 28 28 27 28 28 28 27 28 28 28 28 28 28 28 29 29 29 28 28 28 28 28 29 30 30 31 32 32 32 32
30 30 30 30 30 29 29 29 30 29 29 29 28 28 28 28 28 28 28 27 27 28 28 28 28 28 28 29 29 28 28 28 28 28 28 29 30 30 31 31 32 32 32 32
30 30 30 31 31 30 30 30 30 30 30 30 29 29 29 29 29 28 27 27 27 27 28 28 28 28 29 29 29 29 29 28 28 29 30 30 30 31 31 32 32 31 32 32
29 29 29 30 30 30 30 30 30 30 30 30 30 29 29 29 29 28 28 28 28 28 28 28 29 29 30 30 30 31 30 30 30 30 30 30 31 31 31 31 31 31 31 31
28 28 28 28 29 29 29 30 30 30 31 31 31 30 30 29 29 28 28 29 29 29 29 28 28 29 30 30 31 31 31 30 30 31 31 31 31 31 31 31 30 30 31 31
29 28 27 28 29 29 29 29 30 30 30 30 30 29 29 29 29 28 28 29 30 29 29 29 29 29 29 29 30 30 30 30 30 31 31 30 30 30 30 30 30 30 31 31
30 29 29 29 29 30 30 30 30 31 31 30 29 28 28 29 29 28 29 29 29 29 28 28 28 29 29 29 29 29 29 29 29 30 29 29 29 29 29 30 30 31 31 31
Wind_Direction
260 258 258 259 259 265 268 273 274 277 278 280 277 277 275 275 274 276 276 274 270 266 267 267 263 261 263 263 261 262 261 260 261 264 265 266 268 271 274 274 275 275 275 276
264 261 260 260 260 262 266 270 273 274 274 277 278 276 277 278 278 280 277 272 269 266 267 267 264 264 266 266 264 265 265 263 263 265 267 268 271 273 275 276 277 277 277 278
265 263 262 260 262 264 267 269 272 275 273 273 275 276 276 276 279 281 279 272 270 268 264 263 263 264 266 267 267 268 267 266 266 265 267 268 270 271 273 277 279 280 279 278
265 262 260 264 262 262 265 265 268 272 271 271 272 271 270 270 271 275 277 277 274 271 266 263 264 267 265 264 265 268 267 267 268 267 266 266 268 271 274 277 278 279 279 279
263 264 264 263 263 263 265 266 268 270 272 273 272 271 269 270 272 274 274 273 272 271 270 267 266 268 266 265 264 265 266 269 269 270 268 268 270 273 275 277 279 279 280 281
262 264 266 265 264 264 266 266 267 268 269 271 271 268 268 270 271 271 270 272 272 272 272 269 266 266 266 266 267 266 267 270 271 271 271 272 273 274 275 277 279 279 281 282
262 265 267 267 266 266 266 271 268 266 266 267 269 269 268 270 270 268 268 271 272 271 271 269 268 268 269 270 269 267 267 270 272 273 273 274 275 275 275 277 279 280 281 282
262 264 267 268 266 267 269 268 267 266 266 265 268 270 270 270 269 267 267 269 269 269 269 268 269 270 270 270 267 267 270 271 272 274 274 275 275 276 277 279 281 282 283 284
262 263 266 267 267 266 268 268 266 264 265 263 264 268 269 269 268 267 266 266 265 266 268 268 268 270 270 269 269 268 270 271 272 274 276 275 276 277 279 281 282 283 284 285
259 260 262 264 265 265 265 266 266 266 265 262 263 265 267 267 265 263 263 265 265 265 266 267 269 270 270 270 268 268 269 271 272 274 275 275 275 278 280 282 283 282 283 284
260 259 260 262 265 265 264 263 264 264 264 262 262 263 265 266 265 262 261 263 265 263 263 266 267 269 270 271 270 270 271 272 272 272 273 274 276 279 281 282 282 283 283 285
260 260 260 261 262 263 264 264 264 263 263 261 261 263 264 264 263 263 262 263 262 263 264 266 267 269 270 272 272 273 275 275 272 272 274 276 278 280 280 280 282 283 283 284
258 259 261 260 260 262 263 264 263 263 264 263 263 263 263 263 262 263 263 262 263 264 267 268 270 271 272 274 274 274 275 276 277 278 278 278 279 279 279 279 280 282 284 285
258 260 261 260 260 262 263 264 265 264 265 266 265 262 261 262 262 262 263 264 264 265 268 270 271 272 273 275 275 275 275 276 277 277 279 280 280 280 281 281 280 281 284 287
259 260 261 261 261 263 264 265 265 265 265 267 265 262 260 260 261 262 263 264 265 266 268 270 270 271 274 274 273 275 275 276 277 278 279 280 279 280 281 281 282 284 285 287
258 259 260 261 261 262 264 265 265 265 265 264 264 261 259 259 260 261 262 263 265 266 268 269 270 271 273 273 274 274 275 276 277 278 279 280 280 281 282 282 283 284 286 287
259 259 260 261 260 261 263 265 265 265 263 261 261 260 258 258 259 260 260 261 264 266 268 269 271 271 272 274 275 275 274 276 277 278 280 280 282 283 283 283 285 287 286 287
259 258 259 259 260 260 262 265 266 265 262 260 260 259 258 259 259 260 261 263 265 266 266 268 270 272 274 275 277 278 277 276 277 279 281 282 282 282 283 284 285 286 287 287
261 261 260 261 260 260 260 262 264 264 261 259 259 259 258 258 259 260 261 263 264 265 267 269 271 273 274 275 276 278 279 279 279 280 282 283 282 282 285 286 286 288 288 289
263 263 263 262 261 259 257 258 260 260 260 259 259 258 258 257 256 258 261 263 264 265 267 270 272 273 275 276 277 278 279 281 281 281 282 284 285 285 286 287 289 290 291 291
262 262 261 260 258 256 254 254 256 258 259 259 258 258 258 257 256 259 262 263 264 266 268 269 270 271 273 276 278 279 281 282 283 283 284 285 286 287 288 288 289 290 291 292
259 259 259 258 256 255 254 254 255 257 257 257 257 258 258 258 257 260 263 264 265 267 268 269 270 272 273 276 278 280 281 282 283 284 285 286 288 288 289 289 289 289 290 291
258 259 259 257 255 255 254 254 255 256 255 254 256 259 260 259 258 261 263 265 266 268 269 269 271 273 274 275 277 279 281 281 282 283 285 286 288 289 289 290 289 289 290 290
262 261 259 257 255 254 253 254 254 255 255 255 257 259 260 259 259 261 263 266 268 269 269 270 271 273 273 274 275 277 279 279 281 284 285 286 288 289 290 289 288 288 289 290
261 260 259 257 255 255 255 255 255 255 255 255 257 259 260 260 261 262 263 266 269 269 270 270 272 273 273 274 275 276 278 279 280 283 284 286 287 288 289 289 289 289 291 291
261 261 260 258 256 255 256 256 256 255 254 255 257 258 259 260 262 263 265 267 268 269 270 269 270 272 273 274 276 277 278 279 281 283 285 286 287 287 287 288 289 291 291 291
260 259 259 258 257 256 256 256 257 257 257 258 258 258 259 260 262 264 265 266 267 269 269 269 269 272 273 274 277 279 280 280 281 282 284 286 287 287 287 287 289 291 292 293
Height
5831 5831 5831 5832 5832 5832 5831 5831 5832 5832 5832 5833 5832 5832 5831 5831 5831 5831 5830 5830 5830 5830 5830 5829 5829 5830 5830 5830 5830 5830 5830 5830 5831 5831 5831 5831 5831 5830 5830 5830 5829 5829 5828 5827
5826 5827 5827 5827 5828 5828 5828 5828 5828 5828 5829 5829 5828 5828 5827 5827 5827 5827 5826 5826 5826 5826 5825 5825 5825 5826 5826 5826 5826 5826 5826 5826 5827 5827 5827 5826 5826 5826 5825 5825 5824 5824 5823 5822
5821 5822 5821 5822 5824 5824 5824 5823 5824 5823 5825 5824 5824 5823 5823 5823 5823 5822 5822 5822 5822 5821 5821 5821 5821 5821 5822 5822 5822 5822 5822 5822 5822 5822 5822 5822 5821 5821 5821 5820 5819 5819 5818 5817
5816 5817 5816 5820 5819 5818 5818 5819 5819 5819 5819 5819 5819 5819 5819 5819 5818 5818 5818 5817 5817 5817 5817 5817 5817 5817 5817 5817 5817 5817 5817 5817 5818 5817 5817 5817 5817 5816 5816 5815 5814 5814 5813 5812
5810 5809 5810 5813 5813 5813 5812 5813 5814 5814 5814 5814 5814 5813 5814 5814 5813 5813 5813 5812 5812 5812 5812 5812 5812 5813 5813 5813 5812 5813 5813 5813 5813 5813 5812 5812 5812 5811 5810 5810 5809 5808 5808 5806
5804 5803 5804 5809 5808 5807 5807 5808 5809 5809 5808 5808 5808 5809 5809 5808 5808 5808 5808 5808 5807 5808 5808 5808 5808 5808 5808 5808 5808 5808 5808 5808 5808 5808 5807 5807 5806 5805 5805 5804 5803 5803 5802 5800
5797 5797 5798 5802 5802 5802 5802 5804 5803 5802 5802 5802 5803 5804 5804 5803 5803 5803 5803 5803 5803 5803 5803 5803 5803 5803 5803 5803 5803 5803 5803 5803 5802 5802 5802 5801 5800 5799 5799 5798 5797 5796 5795 5794
5790 5790 5794 5794 5794 5795 5795 5795 5795 5796 5796 5796 5797 5797 5797 5797 5797 5797 5797 5797 5797 5798 5798 5798 5798 5798 5798 5798 5798 5797 5797 5797 5797 5796 5795 5795 5794 5793 5792 5791 5790 5789 5788 5786
5784 5786 5786 5786 5787 5787 5787 5787 5788 5788 5789 5789 5790 5790 5791 5791 5791 5791 5792 5792 5792 5792 5792 5792 5793 5793 5793 5792 5792 5792 5791 5791 5790 5790 5789 5788 5787 5786 5785 5784 5783 5781 5780 5779
5774 5776 5778 5778 5778 5779 5779 5779 5780 5781 5782 5782 5783 5783 5784 5784 5784 5785 5785 5786 5786 5786 5786 5786 5787 5787 5787 5786 5786 5785 5785 5785 5784 5783 5782 5781 5780 5779 5778 5777 5775 5774 5772 5771
5765 5768 5769 5770 5771 5771 5772 5772 5772 5773 5774 5774 5775 5776 5776 5777 5777 5778 5779 5779 5779 5779 5780 5780 5780 5780 5780 5779 5779 5778 5778 5777 5776 5776 5774 5774 5772 5771 5770 5769 5767 5765 5764 5762
5758 5759 5760 5762 5763 5763 5763 5764 5764 5765 5765 5766 5766 5767 5768 5769 5769 5770 5771 5771 5772 5772 5772 5773 5773 5773 5772 5772 5771 5770 5770 5769 5768 5767 5767 5766 5765 5764 5762 5760 5758 5756 5755 5753
5749 5750 5751 5753 5753 5754 5754 5755 5756 5756 5757 5757 5758 5759 5760 5761 5761 5762 5763 5763 5764 5764 5765 5765 5765 5765 5764 5764 5763 5762 5761 5761 5760 5759 5758 5757 5756 5755 5753 5752 5750 5748 5746 5744
5739 5740 5741 5743 5744 5745 5746 5747 5747 5748 5749 5749 5749 5750 5751 5752 5753 5754 5754 5755 5755 5756 5756 5757 5756 5756 5756 5755 5754 5754 5753 5752 5752 5751 5750 5749 5747 5746 5744 5742 5741 5739 5737 5734
5731 5731 5733 5734 5735 5736 5737 5738 5738 5739 5740 5741 5741 5741 5742 5743 5744 5745 5746 5746 5747 5747 5748 5748 5748 5748 5747 5747 5746 5746 5745 5744 5743 5742 5741 5740 5738 5737 5735 5733 5731 5730 5728 5725
5722 5722 5724 5725 5726 5727 5728 5728 5729 5730 5731 5732 5732 5732 5733 5734 5735 5736 5737 5738 5738 5738 5739 5739 5739 5739 5739 5738 5738 5737 5736 5736 5735 5734 5732 5731 5729 5727 5725 5724 5722 5720 5718 5716
5713 5713 5714 5715 5717 5718 5718 5719 5719 5720 5721 5722 5722 5723 5724 5725 5726 5727 5728 5728 5729 5730 5730 5730 5730 5730 5730 5729 5729 5728 5728 5727 5726 5725 5723 5722 5720 5718 5716 5714 5712 5710 5708 5706
5703 5704 5705 5706 5707 5707 5708 5709 5709 5710 5711 5712 5713 5714 5714 5716 5717 5718 5719 5720 5720 5721 5721 5722 5721 5721 5721 5720 5720 5719 5718 5717 5716 5715 5714 5712 5710 5708 5706 5705 5703 5701 5698 5696
5693 5693 5694 5695 5696 5697 5698 5699 5699 5700 5701 5702 5703 5704 5705 5706 5708 5709 5710 5711 5712 5712 5713 5713 5712 5712 5712 5712 5711 5710 5709 5708 5707 5706 5704 5702 5700 5699 5697 5695 5693 5690 5688 5685
5682 5683 5683 5684 5685 5687 5688 5688 5689 5691 5692 5692 5694 5695 5696 5697 5698 5700 5701 5702 5703 5703 5704 5704 5703 5703 5703 5702 5702 5701 5700 5699 5697 5696 5694 5693 5691 5689 5687 5685 5683 5680 5678 5675
5672 5673 5673 5674 5675 5676 5677 5678 5680 5681 5682 5683 5684 5685 5687 5688 5689 5690 5691 5693 5694 5694 5694 5694 5694 5694 5694 5693 5693 5692 5691 5689 5688 5686 5685 5683 5682 5680 5677 5675 5673 5671 5668 5665
5662 5663 5663 5664 5665 5666 5667 5669 5670 5672 5673 5674 5675 5676 5677 5679 5680 5681 5682 5683 5684 5684 5684 5684 5684 5684 5684 5684 5683 5682 5681 5680 5679 5677 5675 5674 5672 5670 5668 5665 5663 5661 5658 5655
5652 5653 5653 5654 5655 5656 5657 5659 5661 5662 5663 5664 5666 5667 5668 5669 5670 5672 5673 5674 5674 5674 5674 5675 5675 5674 5674 5674 5673 5673 5672 5670 5669 5668 5666 5664 5662 5660 5658 5656 5653 5651 5648 5646
5642 5643 5643 5644 5645 5646 5648 5649 5651 5652 5654 5655 5656 5658 5659 5660 5661 5662 5663 5664 5664 5664 5664 5664 5664 5664 5664 5664 5663 5663 5662 5661 5660 5658 5657 5655 5652 5650 5648 5645 5643 5641 5638 5636
5633 5633 5634 5635 5636 5637 5638 5639 5641 5643 5644 5646 5647 5648 5649 5650 5651 5652 5653 5654 5654 5654 5654 5654 5654 5654 5654 5654 5653 5653 5652 5651 5649 5648 5646 5644 5642 5640 5638 5635 5633 5631 5628 5626
5623 5624 5624 5625 5626 5627 5628 5630 5631 5633 5634 5636 5637 5638 5639 5640 5641 5642 5643 5643 5644 5644 5644 5644 5644 5644 5644 5644 5643 5643 5642 5641 5639 5638 5636 5634 5632 5630 5628 5626 5624 5621 5619 5616
5614 5614 5615 5616 5617 5618 5619 5620 5622 5623 5624 5626 5627 5628 5629 5630 5631 5632 5632 5633 5633 5634 5634 5634 5634 5635 5634 5634 5633 5632 5631 5630 5629 5628 5626 5625 5623 5621 5619 5617 5614 5612 5609 5607